Fryeburg, ME

9:22 AM EDT on June 28, 2017 (GMT -0400)
Eastern Slopes Regional

Weather History for KIZG - June, 2014

Change the Weather History Date:

Sunday, June 15, 2014

  Actual Average Record
Temperature  
Mean Temperature 62 °F -  
Max Temperature 75 °F 74 °F 95 °F (2001)
Min Temperature 48 °F 48 °F 37 °F (1997)
Degree Days  
Heating Degree Days 4    
Growing Degree Days 12 (Base 50)    
Moisture  
Dew Point 49 °F    
Average Humidity 63    
Maximum Humidity 96    
Minimum Humidity 37    
Precipitation  
Precipitation 0.00 in - - ()
Sea Level Pressure  
Sea Level Pressure 29.98 in    
Wind  
Wind Speed 5 mph (North)    
Max Wind Speed 15 mph    
Max Gust Speed 24 mph    
Visibility 10 miles    
Events      
Averages and records for this station are not official NWS values.
T = Trace of Precipitation, MM = Missing Value Source: NWS Daily Summary

Daily Weather History Graph

Daily Weather History Graph

Search for Another Location

Airport or City:

Trip Planner

Search our weather history database for the weather conditions in past years. The results will help you decide how hot, cold, wet, or windy it might be!

Date:

Astronomy

Jun. 15, 2014 Rise Set
Actual Time 5:00 AM EDT 8:28 PM EDT
Civil Twilight 4:24 AM EDT 9:04 PM EDT
Nautical Twilight 3:36 AM EDT 9:52 PM EDT
Astronomical Twilight 2:35 AM EDT 10:53 PM EDT
Moon 10:29 PM EDT (6/15) 7:54 AM EDT (6/15)
Length of Visible Light 16h 40m
Length of Day
15h 28m
Waning Gibbous, 91% of the Moon is Illuminated
Jun 15
Waning Gibbous
Jun 19
Last Quarter
Jun 27
New
Jul 5
First Quarter
Jul 12
Full

Hourly Weather History & Observations

Time (EDT) Temp. Dew Point Humidity Pressure Visibility Wind Dir Wind Speed Gust Speed Precip Events Conditions
12:54 AM 51.1 °F 48.9 °F 92% 29.90 in 10.0 mi WSW 3.5 mph - N/A   Clear
1:54 AM 50.0 °F 46.9 °F 89% 29.91 in 10.0 mi Calm Calm - N/A   Clear
2:54 AM 48.0 °F 46.9 °F 96% 29.91 in 10.0 mi Calm Calm - N/A   Partly Cloudy
3:54 AM 48.9 °F 46.9 °F 93% 29.90 in 10.0 mi Calm Calm - N/A   Scattered Clouds
4:54 AM 48.0 °F 46.9 °F 96% 29.92 in 9.0 mi Calm Calm - N/A   Mostly Cloudy
5:54 AM 51.1 °F 50.0 °F 96% 29.94 in 8.0 mi Calm Calm - N/A   Mostly Cloudy
7:54 AM 64.9 °F 53.1 °F 65% 29.97 in 10.0 mi WNW 5.8 mph - N/A   Clear
8:54 AM 68.0 °F 53.1 °F 59% 29.97 in 10.0 mi North 4.6 mph - N/A   Mostly Cloudy
9:54 AM 69.1 °F 53.1 °F 57% 29.98 in 10.0 mi NE 9.2 mph 18.4 mph N/A   Clear
10:54 AM 70.0 °F 52.0 °F 53% 29.98 in 10.0 mi NE 15.0 mph 19.6 mph N/A   Partly Cloudy
11:54 AM 73.0 °F 53.1 °F 49% 29.97 in 10.0 mi NNW 8.1 mph - N/A   Clear
12:54 PM 73.9 °F 51.1 °F 45% 29.97 in 10.0 mi North 12.7 mph 18.4 mph N/A   Clear
1:54 PM 73.9 °F 51.1 °F 45% 29.98 in 10.0 mi North 11.5 mph 20.7 mph N/A   Clear
2:54 PM 73.9 °F 48.9 °F 41% 29.99 in 10.0 mi North 15.0 mph 24.2 mph N/A   Clear
3:54 PM 75.0 °F 48.0 °F 38% 29.99 in 10.0 mi North 11.5 mph - N/A   Clear
4:54 PM 73.9 °F 46.0 °F 37% 29.99 in 10.0 mi NNW 11.5 mph 20.7 mph N/A   Clear
5:54 PM 73.9 °F 46.0 °F 37% 30.00 in 10.0 mi North 8.1 mph - N/A   Clear
6:54 PM 71.1 °F 46.0 °F 41% 30.01 in 10.0 mi North 8.1 mph - N/A   Clear
7:54 PM 66.9 °F 45.0 °F 45% 30.04 in 10.0 mi NNW 9.2 mph - N/A   Clear
8:54 PM 63.0 °F 46.0 °F 54% 30.05 in 10.0 mi NW 4.6 mph - N/A   Clear
9:54 PM 57.0 °F 46.9 °F 69% 30.06 in 10.0 mi NNW 4.6 mph - N/A   Clear
10:54 PM 53.1 °F 48.0 °F 83% 30.06 in 10.0 mi Calm Calm - N/A   Clear
11:54 PM 54.0 °F 45.0 °F 72% 30.06 in 10.0 mi Variable 5.8 mph - N/A   Clear